GFSNGP_prec_radar_246.txt.gz
Reflectivity
19 31 11 14 8 -20 12 20 18 -7 -20 -20 -20 -20 -20 -20 -11 3 -20 -20 -20 -20 -20 -20 -20 -20 -20 -20 -20 -20 -20 5 16 -18 -20 -20 -20 14 -20 -8 -20 -20 -20 -20
-20 9 -20 -16 19 -20 -18 26 8 -18 -20 -20 -20 -20 -20 -20 -16 0 -20 -20 -20 -20 -20 -20 -20 -20 -20 -20 -20 -20 -9 12 7 12 2 -20 15 -20 -2 -20 -20 -20 -20 -12
9 -17 24 8 -20 -16 -20 -20 -5 27 -12 -20 -20 -20 -20 -20 -20 -20 -10 -20 -20 -20 -20 -20 -20 -20 -20 -20 -20 -20 -20 10 14 7 10 12 -17 -10 8 -20 -20 -17 4 15
4 8 14 -1 -19 7 -20 -20 -20 -7 -20 -20 -20 -20 -20 -20 -20 -20 -20 -15 -20 -20 -20 -20 -20 -20 -20 -20 -20 -20 -20 -18 -8 -10 -2 6 -20 7 -18 -20 -20 9 19 25
11 -16 -17 -20 -20 5 8 -19 -20 -20 -20 -20 -20 -20 -20 -20 -20 -20 -20 -19 -20 -20 -20 -20 -20 -20 -20 -20 -20 -20 -20 -20 -15 13 7 -20 -20 -19 -20 -19 14 29 19 -1
14 9 -20 -20 -20 -17 -9 31 -19 -20 -20 -20 -20 -20 -20 -20 -20 -20 -20 -20 -20 -20 -20 -20 -20 -20 -20 -20 -20 -20 -20 -20 11 13 -9 -20 -20 -20 0 17 35 14 -3 -20
-14 5 -11 -20 -20 -7 8 18 -16 -20 -20 -20 -18 -15 -20 -20 -20 -20 -20 -20 -10 10 -7 -20 -20 -20 -20 -20 -20 -20 -20 -11 10 13 -1 -20 -13 14 23 32 16 12 -4 -20
14 17 14 -20 -20 6 -2 -4 -18 -20 2 26 6 -18 -20 -20 -20 -20 -20 -20 -20 13 -5 -20 -19 -20 -14 -20 -20 -20 -19 15 26 24 -0 13 23 31 31 20 18 9 -20 -20
12 -18 -20 -20 -20 -18 -18 -7 5 -20 16 41 23 9 -20 -20 -20 -20 -20 -20 -20 -18 -14 -20 -20 -20 1 -4 -20 -20 14 29 31 20 18 29 33 27 27 22 14 -9 -20 -20
19 -8 -20 -20 -20 -20 -20 4 -3 30 34 17 9 12 -10 -20 -20 -20 -20 0 13 8 -11 -15 -19 -16 7 3 18 14 23 28 26 29 32 31 28 29 24 17 -3 -19 -20 -20
-20 -6 -20 -20 -20 -20 -20 -16 4 33 29 31 42 8 -20 -20 -20 -20 -20 -9 24 31 33 26 25 24 27 27 27 27 29 33 35 34 33 32 32 24 20 9 -1 -11 -20 -20
-3 -20 0 -20 -20 -20 -20 -20 -20 -16 -7 17 15 11 -19 -10 -18 -17 -20 -20 18 32 27 34 33 30 31 31 28 34 36 33 33 34 37 32 24 30 21 11 -11 -20 -20 -20
-20 -20 -20 -20 -20 -20 -20 6 4 1 -16 -20 -20 -20 -1 -1 -20 24 26 27 23 23 19 11 22 28 30 30 35 35 34 33 36 34 30 25 19 9 -1 -20 -20 -20 -20 -20
-20 -20 -20 -20 -20 -20 -15 10 3 7 -3 -20 -20 -19 21 27 19 13 26 23 16 17 19 25 28 22 32 34 34 36 36 33 33 29 23 14 -9 -20 -20 -20 -20 -20 -20 -20
-20 -20 -20 -20 -20 -9 -12 8 33 31 -0 -20 -20 4 27 32 27 26 21 7 -1 -3 8 21 26 28 27 30 35 32 31 25 12 6 -3 -13 -18 -15 -19 -18 -20 -20 -20 -20
-20 -20 -20 -20 -20 -19 10 28 43 29 -4 -18 17 22 31 25 31 18 -7 19 20 20 22 23 27 26 29 25 22 23 11 -8 -5 -17 -20 -20 -20 -20 -20 -20 -20 -20 -20 -20
-20 -20 -20 -16 -20 -17 -5 8 24 40 9 15 31 24 28 30 16 5 9 20 21 23 21 5 5 9 13 7 -3 -12 -20 -20 -20 -20 -20 -20 -20 -20 -20 -20 -20 -20 -20 -20
-20 13 9 22 15 -1 15 23 33 15 20 23 28 30 28 19 12 7 3 2 -20 -19 -16 -5 -6 -2 7 -4 -17 -15 -20 -19 -19 -20 -20 -20 -20 -20 -20 -20 -20 -20 -20 -20
-7 30 30 9 17 10 20 38 22 11 29 13 17 11 -2 -12 -3 9 2 7 13 13 -0 -7 4 3 7 -7 -7 -20 -20 -20 -20 -20 -20 -20 -20 -20 -20 -20 -20 -20 2 -2
0 11 19 24 30 37 34 35 27 -0 8 4 0 -7 1 8 9 10 12 12 12 13 12 6 -3 -7 -19 -20 -20 -20 -20 -20 -20 -20 -20 -20 -20 -20 -20 -20 -19 -20 -20 -20
-13 -7 13 17 27 33 32 32 31 14 9 8 5 -4 8 3 -11 -14 4 6 -2 -10 -20 -20 -20 -20 -20 -20 -20 -20 -20 -20 -20 -20 -20 -20 -20 -20 -20 -20 -19 -20 -20 1
11 6 10 19 32 35 32 24 11 4 5 6 11 14 5 -2 4 4 -3 -14 -20 -20 -20 -15 -17 -20 -20 -20 -20 -20 -20 -20 -20 -20 -20 -20 -20 -20 -20 -20 -20 -20 -8 1
35 35 30 15 3 10 18 15 8 9 8 2 -11 -14 -20 -20 -15 -10 -14 -20 -20 -14 -16 -20 -20 -20 -20 -20 -20 -20 -20 -20 -20 -20 -20 -20 -15 -20 -15 -20 -17 -17 -19 -20
31 28 19 17 16 12 14 17 5 2 -10 -15 -11 -6 -16 -20 -15 -15 -16 -20 -20 -20 -20 -20 -20 -20 -20 -20 -20 -20 -20 -20 -20 -20 -20 -20 -15 -10 -20 -20 -20 -2 -20 -15
34 29 28 22 11 3 -2 -19 -20 -9 -5 -9 -17 -18 -19 -19 -19 -18 -20 -20 -20 -20 -20 -20 -20 -20 -20 -20 -20 -20 -20 -18 -10 -8 -11 -7 -20 -20 -19 -15 -20 -20 -20 -20
19 22 29 16 -12 -17 -14 -9 -10 -6 -4 -1 0 1 -8 -19 -20 -20 -20 -20 -20 -20 -7 -8 -20 -20 -20 -9 -10 -15 -20 -17 -13 -6 -11 -6 3 2 5 6 -1 5 8 -3
8 13 12 12 13 3 2 3 -8 -3 3 1 -0 -1 -10 -5 0 -1 -2 0 2 4 6 9 7 -9 -7 -2 -2 -1 -6 -15 -20 -20 -20 -20 -20 -20 -20 -20 -4 -20 -8 -20

GFSNGP_prec_radar_249.txt.gz
Reflectivity
-20 -20 5 -11 -20 -20 14 -4 16 20 8 23 -20 -20 -20 -20 1 9 11 -19 -7 -5 -20 -20 -20 -20 -20 -20 -20 -20 -19 -20 -20 1 -1 -5 19 9 2 0 26 21 8 6
-20 -20 -20 -20 -20 -20 -17 -1 19 1 -9 -20 -20 -20 -20 -20 -20 -4 6 -2 -12 4 -20 -20 -20 -20 -20 -20 -20 -20 -20 -20 -20 -20 -20 -11 -14 20 0 33 16 12 19 19
-20 -20 -18 8 -20 -20 -20 -4 6 -12 -5 -20 -12 -15 -20 -20 -20 -20 -20 -20 -20 -20 -20 -20 -20 -20 -20 -20 -20 -20 -20 -20 -20 -20 -20 -20 17 -2 37 -0 27 20 20 11
-9 -20 -13 -20 -20 -20 -20 -18 9 8 15 -20 -20 -20 -20 -18 -20 -20 -20 -20 -20 -15 -20 -20 -20 -20 -20 -20 -20 -20 -20 -20 -20 -20 -20 -20 -19 30 -3 21 23 32 27 4
15 1 -18 -20 -20 -20 -20 -20 -19 -13 -19 -20 -20 -20 -20 -20 -20 -20 -20 -17 -20 2 13 -20 -20 -20 -20 -20 -20 -20 -20 -20 -20 -20 -20 -20 -4 20 31 26 24 19 4 2
-19 10 4 -20 -20 -20 -20 -20 -19 1 3 -20 -20 -20 -20 -20 -20 -20 -20 -20 -20 -20 -20 -20 -20 -20 -20 -20 -20 -20 -20 -20 -20 -20 -20 -12 12 25 29 27 19 12 3 20
4 6 -16 -20 -20 -20 -12 -20 -15 -18 -20 -20 -20 -20 -20 -20 -20 -20 -20 -20 -20 -20 -20 -20 -20 -20 -20 -20 -20 -20 -20 -20 -20 -20 -20 -20 10 26 23 20 20 18 27 34
-20 -8 5 26 -14 -20 -20 -20 -20 -18 1 17 1 -10 -20 -20 -20 -20 -20 -20 -20 -20 -20 -20 -20 -20 -20 -20 -20 -20 -20 -20 -20 -3 -20 -20 -2 23 21 17 30 33 34 33
-16 -20 -20 -20 -20 -20 -20 -20 -20 -20 -20 -20 -18 -20 -20 -17 -14 -13 17 -20 -20 -20 -20 -20 -20 -20 -20 -20 -20 -20 -20 -20 -4 -6 9 -16 15 28 29 33 37 34 34 33
-20 -20 -20 -20 -20 -20 -20 -20 -20 -20 -20 -20 -20 -20 -14 34 35 -0 20 9 -7 -20 -20 -20 -20 -20 -20 -20 -20 -20 -20 -10 16 23 20 29 33 34 34 37 34 36 36 29
-20 -20 -20 -20 -20 -20 -20 -20 -20 -20 -20 -20 -20 -19 9 23 35 13 16 27 13 -20 -20 -18 -20 -20 -18 -17 -20 -20 11 26 30 31 28 36 34 34 35 31 34 31 29 19
-20 -20 -20 -20 -20 -20 -20 -9 -20 -20 -20 -20 -15 -10 -5 -6 23 30 13 -9 6 -2 -20 -20 -15 32 36 32 31 32 33 33 30 35 39 33 35 35 31 34 30 26 22 17
-20 -20 -20 -20 -20 -20 -20 -20 -20 -20 -20 -20 -12 -9 5 6 13 19 10 -20 -17 -10 -9 -20 10 20 30 29 31 31 33 36 38 37 34 31 30 33 34 27 18 12 16 -5
-20 -20 -20 -20 -20 -20 -20 -20 -20 -20 -20 -20 -20 -17 1 4 -7 -12 17 -6 -15 15 14 27 27 23 27 33 31 33 34 38 36 35 33 35 33 27 16 16 14 1 -5 -13
-20 -20 -20 -20 -20 -20 -20 -20 -20 -20 -20 -20 -20 -9 -9 -3 -16 -18 15 5 23 24 28 32 32 34 32 35 34 34 35 33 32 31 31 32 30 21 14 6 5 -2 -20 -20
-20 -20 -20 -20 -20 -20 -20 -20 -20 -20 -20 -20 9 16 23 24 25 33 23 30 25 16 33 33 30 30 34 34 32 33 34 32 32 34 29 11 10 5 8 7 -5 -20 -20 -20
-20 15 15 -20 -20 -20 -20 -20 -20 -20 -20 -4 17 16 21 30 35 37 33 33 32 26 28 30 29 31 32 34 29 27 31 23 25 7 10 8 3 -4 -20 -20 -20 -20 -20 -20
-20 -20 -20 -20 -20 -20 -20 -15 -19 7 13 15 18 24 35 17 19 22 23 30 20 16 18 23 28 27 30 29 31 28 17 1 -7 -10 -20 -20 -20 -20 -20 -20 -20 -20 -20 -20
-20 -20 -8 5 -17 12 -4 -13 3 25 22 22 28 31 29 14 12 16 18 20 20 18 18 29 30 32 30 33 18 2 -4 -19 -20 -20 -20 -20 -20 -20 -20 -20 -20 -20 -20 -20
-20 -20 1 16 12 8 20 25 27 34 36 35 33 20 19 18 21 17 17 17 15 15 15 8 5 0 -0 -2 -1 -6 -20 -20 -20 -20 -20 -20 -20 -20 -20 -20 -20 -20 -20 -20
11 21 9 17 19 34 31 34 33 23 24 31 18 19 20 19 16 18 16 10 8 -3 -19 -20 -20 -20 -20 -20 -20 -20 -20 -20 -20 -20 -20 -20 -20 -20 -20 -20 -20 -20 -20 -20
20 16 18 19 23 24 20 29 22 21 23 24 28 25 12 11 10 10 7 1 -15 -20 -20 -20 -20 -20 -20 -20 -20 -20 -20 -20 -20 -20 -20 -20 -20 -20 -20 -20 -20 -20 -20 -20
16 13 10 12 21 22 20 21 21 25 29 31 19 14 7 -5 -3 5 -3 -14 -16 -19 -20 -20 -20 -20 -20 -20 -20 -20 -20 -20 -20 -20 -20 -20 -20 -20 -20 -20 -20 -20 -20 -20
16 20 23 27 26 12 17 18 20 14 10 11 10 2 -17 -20 -20 -20 -20 -20 -20 -20 -20 -20 -20 -20 -20 -20 -20 -20 -20 -20 -20 -20 -20 -20 -20 -20 -20 -20 -20 -20 -20 -20
11 8 10 3 -0 6 3 5 -1 -20 -20 -20 -20 -20 -20 -20 -20 -20 -20 -20 -20 -20 -20 -20 -20 -20 -20 -20 -20 -20 -20 -20 -20 -20 -20 -20 -20 -20 -20 -20 -20 -20 -20 -20
21 21 11 -3 -10 -9 -16 -7 -19 -20 -20 -20 -20 -20 -20 -20 -20 -20 -20 -20 -20 -20 -20 -20 -20 -20 -20 -20 -20 -20 -20 -20 -20 -20 -20 -20 -20 -20 -20 -20 -20 -20 -20 -20
15 -3 -18 -20 -20 -20 -20 -20 -20 -20 -20 -20 -20 -20 -20 -20 -20 -20 -20 -20 -20 -20 -20 -20 -20 -20 -20 -20 -20 -20 -20 -20 -20 -20 -20 -20 -20 -20 -20 -20 -20 -20 -20 -20

GFSNGP_prec_radar_252.txt.gz
Reflectivity
-20 -20 -20 -20 -20 -20 -20 -20 12 -16 -20 -20 -20 -20 -20 -20 -20 -20 -14 -20 -20 -20 -20 -20 -20 -4 3 -20 -20 -20 -20 -20 -20 -20 27 24 -7 -19 -20 -4 21 3 43 21
-20 -20 -20 -20 -20 -20 -20 -20 -18 -9 -20 -20 -20 -20 -20 -20 -20 -20 -20 -9 -20 -20 -20 -20 -16 -15 -20 -20 -20 -20 -20 22 23 24 -20 23 26 -17 4 21 4 7 3 36
-20 -20 -20 -20 -20 -20 -20 -20 -20 -20 -20 -20 -20 -20 -20 -20 -20 -20 -0 -15 -20 -20 -3 -20 4 7 -19 -20 -20 -20 -8 -20 -7 25 26 -20 -19 18 12 -1 9 -2 26 23
4 -4 1 -20 -20 -20 -20 -20 -20 -20 -20 -19 -20 -20 -20 -20 -20 -20 -7 12 -13 -20 15 21 4 10 6 -20 -20 -20 -20 -3 -20 -20 4 12 -16 -19 -17 5 -7 3 19 41
16 -9 -20 -20 -20 -20 -20 -20 -20 -20 -20 -20 -18 -20 -20 -20 -20 -20 -20 -19 -1 6 -20 3 9 -20 -20 -20 -20 -14 -20 -20 -20 -20 -20 -20 -20 -20 -20 -20 7 20 34 34
-17 12 -16 -20 -20 -20 -20 -16 -20 -20 -20 -20 -20 -20 -20 -20 -20 -20 -20 -20 -20 -13 10 -20 -20 -20 -20 -20 -20 -20 -20 -20 -20 -20 -20 -20 -20 -20 -20 -20 -14 18 26 15
-16 11 -10 -20 -20 -20 -20 -20 -20 -20 -20 -20 -20 -20 -15 -20 -20 -20 -20 -20 -20 -20 -20 -20 -20 -20 -20 -20 -20 -20 -20 -16 -6 16 -20 -20 -20 -20 -20 -20 10 18 20 28
-20 -5 3 -20 -20 -20 -20 -20 -20 -20 -20 -20 -20 -20 -20 -20 -20 -20 -20 -20 -20 -20 -20 -20 -20 -20 -20 -20 -20 -20 -20 20 20 13 -20 3 -9 -20 -20 9 12 17 24 32
-20 -20 -20 -20 -20 -20 -20 -20 -20 -20 -20 -20 -20 -20 -20 -20 -20 -20 -20 -20 -20 -20 -20 -20 -20 -20 -20 -20 -20 -20 -20 7 11 17 -20 9 -14 -12 26 17 13 31 33 36
-20 -20 -20 -20 -20 -20 -20 -20 -20 -20 -20 -20 -20 -20 -20 -20 -20 -10 -20 -20 -20 -20 15 -20 -20 -20 -20 -20 -20 -20 -20 8 16 -14 -20 -19 -10 1 23 28 36 36 36 34
-20 -20 -20 -20 -20 -20 -20 -20 -20 -20 -20 -20 -20 -20 -20 -20 -20 -16 -20 -20 -2 32 28 28 -3 -10 -20 -20 -20 -20 -20 13 13 11 13 20 16 23 34 36 35 33 31 31
-20 -20 -20 -20 -20 -20 -20 -20 -20 -20 -20 -20 -20 -20 -20 -20 -19 -20 -19 -14 17 29 31 29 37 2 -14 -20 -20 -20 -17 11 2 16 31 28 30 39 38 34 34 34 33 22
15 -20 -20 -20 -20 -20 -20 -20 -20 -20 -20 -20 -20 -20 -20 -20 -20 -20 -20 7 3 15 29 32 17 19 -8 -6 0 13 -4 19 33 33 35 40 37 32 30 34 32 36 32 30
-6 -8 -4 -20 -20 -20 -20 -20 -20 -20 -20 -20 -20 -20 -20 -20 -20 -20 -16 6 2 1 10 25 -8 -2 10 9 15 28 30 32 30 31 36 37 35 28 29 26 23 17 25 26
-20 -20 -20 -20 -20 -20 -20 -20 -20 -20 -20 -20 -20 -20 -20 -20 -20 -20 -20 -18 -0 -17 -19 20 16 20 20 18 24 32 34 30 34 38 37 33 30 33 30 25 17 16 14 20
-20 -20 -20 -20 -20 -20 -20 -20 -20 -20 -20 -20 -20 -20 -20 -20 -20 -12 9 -2 7 4 21 31 24 20 20 26 29 31 34 35 35 33 34 34 32 21 20 14 12 14 12 7
-20 -20 -20 -20 -20 -20 -20 -20 -20 -20 -20 -20 -20 -20 -20 -20 17 22 24 22 28 29 32 19 22 30 32 36 31 36 36 35 31 34 33 30 22 21 14 11 9 6 5 3
-20 -20 -20 -20 -20 -20 -20 -20 -20 -18 -20 -17 -20 -1 29 30 29 17 17 14 15 17 21 27 32 32 30 32 30 30 31 32 30 27 25 25 16 12 7 3 2 2 -6 -20
-20 -11 -20 -20 -20 -20 -17 11 21 19 0 19 26 34 30 29 24 16 14 17 19 18 20 32 28 31 28 32 28 24 24 23 21 22 16 10 1 4 4 -3 -17 -20 -20 -20
-20 -20 -5 23 -3 1 30 36 30 26 30 34 27 24 21 23 22 19 19 20 18 15 29 31 31 32 28 21 17 14 16 12 2 3 4 5 -3 -19 -20 -20 -20 -20 -20 -20
-1 -0 21 18 19 20 21 24 23 22 23 25 25 26 26 25 21 20 19 16 23 19 20 21 14 12 10 5 -12 -20 -20 -20 -20 -20 -20 -20 -20 -20 -20 -20 -20 -20 -20 -20
2 12 11 0 3 20 21 27 24 23 25 25 23 22 18 19 19 18 18 14 14 15 16 15 11 10 7 -20 -20 -20 -20 -20 -20 -20 -20 -20 -20 -20 -20 -20 -20 -20 -20 -20
10 14 13 18 17 15 15 18 20 21 22 20 19 16 12 -6 -2 1 -1 -2 -2 1 3 -2 -5 -15 -16 -20 -20 -20 -20 -20 -20 -20 -20 -20 -20 -20 -20 -20 -20 -20 -20 -20
16 17 16 18 16 -1 16 17 12 13 10 4 4 7 4 3 -8 -9 -15 -17 -20 -20 -20 -20 -20 -20 -20 -20 -20 -20 -20 -20 -20 -20 -20 -20 -20 -20 -20 -20 -20 -20 -20 -20
7 18 20 13 1 -12 -7 2 5 -12 -9 -9 -15 -14 -15 -16 -14 -20 -20 -20 -20 -20 -20 -20 -20 -20 -20 -20 -20 -20 -20 -20 -20 -20 -20 -20 -20 -20 -20 -20 -20 -20 -20 -20
-1 -19 -20 -20 -20 -20 -20 -20 -20 -20 -20 -20 -20 -20 -20 -20 -20 -20 -20 -20 -20 -20 -20 -20 -20 -20 -20 -20 -20 -20 -20 -20 -20 -20 -20 -20 -20 -20 -20 -20 -20 -20 -20 -20
-20 -20 -20 -20 -20 -20 -20 -20 -20 -20 -20 -20 -20 -20 -20 -20 -20 -20 -20 -20 -20 -20 -20 -20 -20 -20 -20 -20 -20 -20 -20 -20 -20 -20 -20 -20 -20 -20 -20 -20 -20 -20 -20 -20

GFSNGP_prec_radar_255.txt.gz
Reflectivity
-20 -20 -20 -20 -20 -20 -20 -20 12 -20 -20 -20 -20 -20 -20 -20 -20 -20 -20 -20 -20 -20 -20 -20 -20 -20 -20 -20 -20 -20 -9 -16 11 11 -10 -8 5 -7 -11 9 16 28 -18 -5
-20 -20 -20 -20 -20 -20 -20 -20 -20 -20 -20 -20 -20 -20 -20 -20 -20 -20 -20 -20 -20 -20 -20 -20 -20 -20 -20 -20 -20 27 17 25 12 26 -18 -20 -20 -20 -20 -20 -19 -11 -20 14
-20 -20 -20 -20 -20 -20 -20 -20 -20 -20 -20 -20 -20 -20 -20 -20 -20 -20 -20 -20 -20 -20 -20 -20 -18 -14 -20 -20 -20 -3 11 -11 2 -10 27 20 -20 11 17 6 -19 -20 -20 17
-18 -16 -12 -20 -20 -20 -20 -20 -20 -20 -20 -20 -20 -20 -20 -20 -20 -20 -20 -20 -20 -20 -20 -20 -20 -4 12 5 -20 -20 6 24 27 24 24 -19 -20 4 -20 -17 -7 -20 -11 18
10 -3 -20 -20 -20 -20 -20 -20 -20 -20 -20 -20 -20 -20 -20 -20 -20 -20 -20 -20 -20 -20 -20 -20 -20 0 27 26 20 1 -13 -17 20 22 4 -9 -17 -18 22 5 -13 -15 18 3
-11 11 -20 -20 -20 -20 -20 -20 -20 -20 -20 -20 -20 -20 -20 -20 -20 -20 -20 -20 -20 -20 -20 -20 -20 10 6 -2 11 -3 8 6 18 21 22 29 -13 20 18 19 -18 20 -1 -19
-19 -0 -17 -20 -20 -20 -20 -20 -20 -20 -20 -20 -20 -20 -20 -20 -20 -20 -20 -20 -20 -20 -20 -20 -20 -16 -8 -15 -20 13 25 28 25 14 20 -9 14 15 23 19 11 6 -6 -8
0 6 4 -20 -20 -20 -20 -20 -20 -20 -20 -20 -20 -20 -20 -20 -20 -20 -20 -20 -20 -20 -20 -20 -20 -20 8 12 -20 -9 13 13 -18 -20 0 8 24 12 19 -4 0 5 -20 0
2 -20 -20 -20 -20 -20 -20 -20 -20 -20 -20 -20 -20 -20 -20 -20 -20 -20 -20 -20 -20 -20 -20 -20 -20 -20 -7 -3 -20 -20 -20 -20 -20 -20 -20 17 15 17 4 -20 -20 -20 -20 2
-14 -20 -20 -20 -20 -20 -20 -20 -20 -20 -20 -20 -20 -20 -20 -20 -20 -20 -20 -20 -20 -20 -20 -20 -20 -20 -20 -20 -20 -20 -20 -20 -20 -20 -20 -11 8 -19 -20 -20 -20 -20 -11 17
-15 -20 -20 -20 -20 -20 -20 -20 -20 -20 -20 -20 -20 -20 -20 -20 -20 -20 -20 -20 -20 -20 -20 -20 -20 -20 -20 -20 -20 -20 -20 -20 -20 -20 -20 -20 -20 -19 -11 -20 -7 -5 15 38
-20 -20 -6 -12 -20 -15 -20 -20 -20 -20 -20 -20 -20 -20 -20 -20 -20 -20 -20 -20 -20 -20 -20 -20 -20 -20 -20 21 -15 -20 -20 -20 -20 -20 -20 -17 -1 24 31 30 28 37 41 27
24 -20 -20 -20 -20 -20 -20 -20 -20 -20 -20 -20 -20 -20 -20 -20 -20 -20 -20 -20 -20 -20 -20 -20 -20 -9 10 22 24 29 28 0 4 -7 -13 11 9 27 32 35 42 45 31 25
-20 -20 -20 -20 -20 -20 -20 -20 -20 -20 -20 -20 -20 -20 -20 -20 -20 -20 -20 -20 -18 -17 -20 -20 -13 13 18 33 28 24 15 13 -11 20 30 21 18 31 37 39 39 31 28 24
-20 -20 -20 -20 -20 -20 -20 -20 -20 -20 -20 -20 -20 -20 -20 -20 -20 -20 -20 -20 -20 -20 -20 -20 6 9 10 12 13 19 17 11 17 28 23 22 31 35 35 34 28 16 20 25
-20 -20 -20 -20 -20 -20 -20 -20 -20 -20 -20 -20 -20 -20 -20 -20 -20 -20 -20 -20 -20 -1 26 23 24 8 8 10 13 14 18 24 24 31 28 30 32 32 32 29 20 19 14 8
-20 -20 -20 -20 -20 -20 -20 -20 -20 -20 -20 -20 -20 -20 -20 -20 -20 -20 -20 2 30 32 25 19 10 11 9 20 23 22 22 25 29 30 32 32 31 30 27 26 15 9 3 5
-20 -18 -12 5 -1 -18 -20 -7 -6 -17 -20 8 -14 -19 -3 5 2 15 21 22 19 13 8 10 11 16 21 26 28 29 30 33 34 32 32 31 27 25 14 14 11 7 2 4
5 10 -8 -19 -16 -4 5 26 18 24 31 25 17 18 22 28 26 20 21 17 13 15 22 31 19 30 29 28 25 26 30 30 29 30 28 24 21 24 18 10 2 1 3 2
-7 -3 -16 -17 3 2 2 12 16 10 12 18 20 19 20 22 20 22 22 21 23 22 31 31 30 25 23 25 26 20 26 14 10 12 10 9 7 6 7 4 -3 -8 -9 -13
-20 -19 -4 -10 6 -4 7 15 14 15 22 21 16 16 20 23 20 21 19 20 24 22 19 17 14 12 12 10 -2 -5 -3 -1 -3 -5 -2 -1 -6 -11 -12 -10 -4 -6 -13 -20
2 -13 -1 7 8 11 17 17 18 19 19 20 21 19 14 23 23 21 21 20 21 13 14 11 10 10 3 1 1 -6 -16 -20 -20 -20 -20 -20 -20 -20 -20 -20 -20 -20 -20 -20
-20 5 14 15 15 17 8 3 2 8 13 16 19 20 19 20 21 18 13 8 2 0 0 2 2 4 -4 -12 -20 -20 -20 -20 -20 -20 -20 -20 -20 -20 -20 -20 -20 -20 -20 -20
-2 3 15 18 12 12 0 7 7 9 12 14 14 12 12 13 12 7 5 2 -3 -14 -20 -20 -20 -20 -20 -20 -20 -20 -20 -20 -20 -20 -20 -20 -20 -20 -20 -20 -20 -20 -20 -20
-15 11 4 -16 -17 -20 -20 -19 -16 -16 -18 -20 -20 -20 -20 -20 -20 -20 -20 -20 -20 -20 -20 -20 -20 -20 -20 -20 -20 -20 -20 -20 -20 -20 -20 -20 -20 -20 -20 -20 -20 -20 -20 -20
-3 -12 -20 -20 -20 -20 -20 -20 -20 -20 -20 -20 -20 -20 -20 -20 -20 -20 -20 -20 -20 -20 -20 -20 -20 -20 -20 -20 -20 -20 -20 -20 -20 -20 -20 -20 -20 -20 -20 -20 -20 -20 -20 -20
-20 -20 -20 -20 -20 -20 -20 -20 -20 -20 -20 -20 -20 -20 -20 -20 -20 -20 -20 -20 -20 -20 -20 -20 -20 -20 -20 -20 -20 -20 -20 -20 -20 -20 -20 -20 -20 -20 -20 -20 -20 -20 -20 -20

GFSNGP_prec_radar_258.txt.gz
Reflectivity
-20 -20 -20 -20 -20 -20 -20 -20 -17 -20 -20 -20 -20 -20 -20 -20 -20 -20 -20 -20 -20 -20 -20 -20 -20 -20 -20 -20 -20 -20 0 2 20 9 17 6 10 3 17 -6 23 -16 2 19
-20 -20 -20 -20 -20 -20 -20 -20 -20 -20 -20 -20 -20 -20 -20 -20 -20 -20 -20 -20 -20 -20 -20 -20 -20 -20 -20 -20 -20 -20 -20 -15 7 21 3 -3 -18 4 17 8 -12 -18 25 24
-20 -20 -20 -20 -20 -20 -20 -20 -20 -20 -20 -20 -20 -20 -20 -20 -20 -20 -20 -20 -20 -20 -20 -20 -20 -20 -20 -20 -20 -20 -14 -20 -20 3 29 3 25 24 14 8 20 -8 25 18
-20 -2 -16 -20 -20 -20 -20 -20 -20 -20 -20 -20 -20 -20 -20 -20 -20 -20 -20 -20 -20 -20 -20 -20 -20 -20 -20 -20 -20 -1 -4 2 -20 -20 -8 23 29 25 24 9 23 25 20 20
3 -13 -20 -20 -20 -20 -20 -20 -20 -20 -20 -20 -20 -20 -20 -20 -20 -20 -20 -20 -20 -20 -20 -20 -20 -20 -20 -20 -20 -20 -20 -11 34 4 -20 15 26 23 18 13 16 8 10 -3
-9 0 -20 -20 -20 -20 -20 -20 -20 -20 -20 -20 -20 -20 -20 -20 -20 -20 -20 -20 -20 -20 -20 -20 -20 -20 -20 -20 -20 -20 -20 -20 -13 31 6 11 19 19 7 12 18 17 9 5
-12 -2 -13 -20 -20 -20 -12 -20 -20 -20 -20 -20 -20 -20 -20 -20 -20 -20 -20 -20 -20 -20 -20 -20 -20 -20 -20 -20 -20 -20 -20 -20 -18 18 31 36 21 34 28 23 30 18 20 3
6 6 -1 -20 -20 -20 -20 -20 -20 -20 -20 -20 -20 -20 -20 -20 -20 -20 -20 -20 -20 -20 -20 -20 -20 -20 -20 -20 -20 -20 -20 -20 -20 1 13 18 33 34 29 20 21 23 17 20
3 -20 -20 -20 -20 -20 -20 -20 -20 -20 -20 -20 -20 -20 -20 -20 -20 -20 -20 -20 -20 -20 -20 -20 -20 -20 -20 -20 -20 -20 -20 -20 -20 -20 -18 9 27 18 9 20 19 22 14 9
-18 -20 -20 -20 -20 -20 -20 -20 -20 -20 -20 -20 -20 -20 -20 -20 -20 -20 -20 -20 -20 -20 -20 -20 -20 -20 -20 -20 -20 -20 -20 -20 -20 -20 -15 -19 3 11 11 21 14 13 18 22
-14 -20 -20 -20 -20 -20 -20 -20 -20 -20 -20 -20 -20 -20 -20 -20 -20 -20 -20 -20 -20 -20 -20 -20 -20 -20 -20 -20 -20 -20 -20 -20 11 -2 12 -1 -11 3 10 13 13 11 15 17
-20 -20 -20 -20 -20 -20 -20 -20 -20 -20 -20 -20 -20 -20 -20 -20 -20 -20 -20 -20 -20 -20 -20 -20 -20 -20 -20 -20 -20 -20 -20 7 23 25 -5 -15 -5 10 23 21 24 27 34 27
-20 -20 -20 -20 -20 -20 -20 -20 -20 -20 -20 -20 -20 -20 -20 -20 -20 -20 -20 -20 -20 -20 -20 -20 -20 -20 -20 -20 -3 -20 -3 25 32 36 16 4 -1 8 9 25 22 24 24 37
-20 -20 -20 -20 -20 -20 -20 -20 -20 -20 -20 -20 -20 -20 -20 -20 -20 -20 -20 -20 -20 -20 -20 -20 -20 -20 -20 -20 18 18 12 27 38 35 23 26 28 25 35 35 27 30 32 31
-20 -20 -20 -20 -20 -20 -20 -20 -20 -20 -20 -20 -20 -20 -20 -20 -20 -20 -20 -20 -12 -20 -20 -20 -20 -19 2 15 24 26 21 29 33 33 32 31 31 24 25 26 16 16 20 28
-20 -20 -20 -20 -20 -20 -20 -20 -20 -14 -11 -20 2 -16 -20 -20 -20 -20 -20 -20 -15 -20 -20 -8 8 22 21 14 27 27 30 27 35 37 32 30 27 12 18 24 29 29 28 15
-20 -20 -20 -20 -20 -10 -16 -20 -15 -11 -16 -20 2 -2 -19 -20 -20 -20 -20 -13 -4 6 9 14 8 24 15 6 15 21 25 32 30 28 28 28 22 22 28 30 30 21 16 20
-20 -20 -19 -7 -8 -8 -11 0 1 2 -14 -6 6 16 19 8 23 19 25 21 13 6 10 13 14 17 16 25 27 29 28 25 26 27 28 28 30 31 32 20 19 18 16 12
-20 -11 -8 2 5 4 -1 -5 2 -1 -14 6 5 20 22 23 20 20 23 21 18 11 20 24 11 23 21 22 33 30 22 16 23 27 26 28 24 25 22 18 19 18 15 10
-20 -5 -16 -7 -10 -3 8 11 14 3 15 17 15 15 15 20 22 21 18 21 23 23 18 27 29 21 23 22 19 22 24 24 18 19 18 14 13 14 12 6 4 8 10 9
-5 -20 -20 -10 12 9 11 14 5 14 18 13 7 13 19 21 20 20 18 18 25 23 23 22 20 18 17 15 15 14 10 9 11 14 14 11 11 9 5 -3 -10 -14 -12 -5
-20 -20 -8 8 7 6 13 11 15 12 12 17 19 18 17 21 20 18 19 23 24 21 18 12 5 5 7 3 -9 -6 -13 -20 -20 -20 -20 -16 -10 -11 -15 -20 -20 -19 -18 -17
-12 -16 -12 -15 2 18 11 2 10 9 2 7 12 14 13 14 15 16 14 7 8 0 -7 -13 -15 -17 -19 -20 -20 -20 -20 -20 -20 -20 -20 -20 -20 -20 -20 -20 -20 -20 -20 -20
-20 -10 -11 -14 -5 4 7 -10 -10 -16 -19 -13 -10 -8 -5 1 3 1 -8 -15 -19 -20 -20 -20 -20 -20 -20 -20 -20 -20 -20 -20 -20 -20 -20 -20 -20 -20 -20 -20 -20 -20 -20 -20
-20 -20 -19 -20 -20 -20 -20 -20 -20 -20 -20 -20 -20 -20 -20 -20 -20 -20 -20 -20 -20 -20 -20 -20 -20 -20 -20 -20 -20 -20 -20 -20 -20 -20 -20 -20 -20 -20 -20 -20 -20 -20 -20 -20
-20 -20 -20 -20 -20 -20 -20 -20 -20 -20 -20 -20 -20 -20 -20 -20 -20 -20 -20 -20 -20 -20 -20 -20 -20 -20 -20 -20 -20 -20 -20 -20 -20 -20 -20 -20 -20 -20 -20 -20 -20 -20 -20 -20
-20 -20 -20 -20 -20 -20 -20 -20 -20 -20 -20 -20 -20 -20 -20 -20 -20 -20 -20 -20 -20 -20 -20 -20 -20 -20 -20 -20 -20 -20 -20 -20 -20 -20 -20 -20 -20 -20 -20 -20 -20 -20 -20 -20

GFSNGP_prec_radar_261.txt.gz
Reflectivity
-20 -20 -20 -20 -20 -20 -20 -20 -20 -20 -20 -20 -20 -20 -20 -20 -20 -20 -20 -20 -20 -20 -20 -20 -20 -20 -20 -20 -20 -20 -20 -20 -20 -20 13 2 -1 11 14 9 7 13 6 14
-20 -20 -20 -20 -20 -20 -20 -20 -20 -20 -20 -20 -20 -20 -20 -20 -20 -20 -20 -20 -20 -20 -20 -20 -20 -20 -20 -20 -20 -20 -20 -20 -20 -9 9 -12 -5 22 25 23 23 14 12 30
-20 -20 -18 -20 -20 -20 -20 -20 -20 -20 -20 -20 -20 -20 -20 -20 -20 -20 -20 -20 -20 -20 -20 -20 -20 -20 -20 -20 -20 -20 -20 -20 -20 -20 7 14 8 9 23 21 18 23 28 25
-20 -6 -20 -20 -20 -20 -20 -20 -20 -20 -20 -20 -20 -20 -20 -20 -20 -20 -20 -20 -20 -20 -20 -20 -20 -20 -20 -20 -20 -20 -20 -20 -20 -20 -20 4 -15 19 10 17 17 16 17 24
5 -2 -20 -20 -20 -20 -20 -20 -20 -20 -20 -20 -20 -20 -20 -20 -20 -20 -20 -20 -20 -20 -20 -20 -20 -20 -20 -20 -20 -20 -20 -20 -20 -20 -20 2 14 -3 7 -20 6 13 5 16
10 3 -20 -20 -20 -20 -20 -20 -20 -20 -20 -20 -20 -20 -20 -20 -20 -20 -20 -20 -20 -20 -20 -20 -20 -20 -20 -20 -20 -20 -20 -20 -20 -20 -20 -13 2 4 17 11 17 18 16 12
-7 7 -19 -20 -20 -20 -3 -20 -20 -20 -20 -20 -20 -20 -20 -20 -20 -20 -20 -20 -20 -20 -20 -20 -20 -20 -20 -20 -20 -20 -20 -20 -20 -20 -20 -20 -13 -20 -4 29 33 30 18 16
2 -12 -11 -20 -20 -20 -20 -20 -20 -20 -20 -20 -20 -20 -20 -20 -20 -20 -20 -20 -20 -20 -20 -20 -20 -20 -20 -20 -20 -20 -20 -20 -20 -20 -20 -20 -17 -20 -19 20 28 28 39 22
-20 -20 -20 -20 -20 -20 -20 -20 -20 -20 -20 -20 -20 -20 -20 -20 -20 -20 -20 -20 -20 -20 -20 -20 -20 -20 -20 -20 -20 -20 -20 -20 -20 -20 -20 -20 -20 -20 -20 -6 16 21 31 37
-14 -20 -20 -20 -20 -20 -20 -20 -20 -20 -20 -20 -20 -20 -20 -20 -20 -20 -20 -20 -20 -20 -20 -20 -20 -20 -20 -20 -20 -20 -20 -20 -20 -20 -20 -20 -20 -2 17 12 -20 -4 19 33
-20 -20 -20 -20 -20 -20 -20 -20 -20 -20 -20 -20 -20 -20 -20 -20 -20 -20 -20 -20 -20 -20 -20 -20 -20 -20 -20 -20 -20 -20 -20 -20 -20 -20 -12 -20 -2 6 18 12 -6 -14 9 7
-20 -20 -20 -20 -20 -20 -20 -20 -20 -20 -20 -20 -20 -20 -20 -20 -20 -20 -20 -20 -20 -20 -20 -20 -20 -20 -20 -20 -20 -20 -20 -20 -20 -20 -17 -8 14 18 25 25 23 18 23 17
-20 -20 -20 -20 -20 -20 -20 -20 -20 -20 -20 -20 -20 -20 -20 -20 -20 -20 -20 -20 -20 -20 -20 -20 -20 -20 -20 -20 -20 -20 -20 -20 -20 -20 -20 6 27 22 26 29 24 13 25 21
-20 -20 -20 -20 -20 -20 -20 -20 -20 -20 -20 -20 -20 -20 -17 -10 -20 -20 -20 -20 -20 -20 -20 -20 -20 -20 -20 -20 -20 -12 3 15 -5 -20 -16 10 27 36 30 37 25 24 26 24
-20 -20 -20 -20 -20 -20 -20 -20 -20 -20 -20 -20 -20 -20 -20 -19 -0 10 -19 -20 -20 -20 -8 -12 -20 -20 -19 -9 17 23 -1 1 9 10 5 25 35 35 37 35 30 23 25 29
-20 -20 -20 -20 -20 -20 -20 -20 -20 -17 -20 -20 -20 -11 -20 -19 13 9 7 -4 -12 -11 -8 -9 9 10 11 2 8 23 26 23 29 23 28 35 38 35 34 35 34 31 20 20
-20 -20 -20 -20 -20 -20 -20 -11 -4 -20 -14 -20 -18 -15 -5 22 21 20 19 11 17 12 14 15 -11 14 7 19 18 21 23 16 26 31 38 37 36 34 36 37 34 25 21 28
-20 -15 -20 -20 2 2 -5 -4 -1 -19 0 2 3 -19 -15 8 19 17 16 20 19 18 16 15 16 18 21 23 24 28 28 27 27 29 36 36 34 35 26 24 22 19 21 28
-20 -17 -20 -20 -12 -13 -20 -20 -13 -14 -4 8 3 12 13 18 20 22 19 18 17 16 22 20 17 22 21 23 31 29 28 29 29 29 27 28 29 32 32 22 22 21 19 22
-20 -20 -20 -20 -20 -20 -20 -13 -3 -1 12 16 16 13 9 12 17 19 16 14 22 26 22 20 17 19 19 16 11 14 13 13 15 16 13 14 17 20 23 21 18 18 18 18
-20 -20 -20 -20 -20 -20 -20 -19 -18 6 12 -1 2 11 16 18 18 16 5 9 19 17 13 6 4 3 -2 -3 1 5 5 -3 -1 4 9 16 16 16 13 10 12 12 13 14
-20 -20 -20 -20 -20 -20 -4 10 10 3 3 8 12 14 12 10 10 5 2 -9 -14 -13 -4 1 1 -13 -20 -20 -19 -20 -20 -20 -20 -20 -20 -20 -16 -20 -20 -19 -16 -13 -10 -8
-20 -20 -20 -20 -20 -20 -20 -20 -20 -17 -16 -10 -3 -6 -18 -20 -19 -8 2 -11 -20 -20 -20 -20 -20 -20 -20 -20 -20 -20 -20 -20 -20 -20 -20 -20 -20 -19 -20 -19 -19 -18 -18 -18
-20 -20 -20 -20 -20 -20 -20 -20 -20 -20 -20 -20 -20 -20 -20 -20 -20 -20 -20 -20 -20 -20 -20 -20 -20 -20 -20 -20 -20 -20 -20 -20 -20 -20 -20 -20 -20 -20 -20 -20 -20 -20 -20 -20
-20 -20 -20 -20 -20 -20 -20 -20 -20 -20 -20 -20 -20 -20 -20 -20 -20 -20 -20 -20 -20 -20 -20 -20 -20 -20 -20 -20 -20 -20 -20 -20 -20 -20 -20 -20 -20 -20 -20 -20 -20 -20 -20 -20
-20 -20 -20 -20 -20 -20 -20 -20 -20 -20 -20 -20 -20 -20 -20 -20 -20 -20 -20 -20 -20 -20 -20 -20 -20 -20 -20 -20 -20 -20 -20 -20 -20 -20 -20 -20 -20 -20 -20 -20 -20 -20 -20 -20
-20 -20 -20 -20 -20 -20 -20 -20 -20 -20 -20 -20 -20 -20 -20 -20 -20 -20 -20 -20 -20 -20 -20 -20 -20 -20 -20 -20 -20 -20 -20 -20 -20 -20 -20 -20 -20 -20 -20 -20 -20 -20 -20 -20